Main page
METAR-TAF:

METAR-TAF

Airports :

Claremore Regional Airport

Claremore, Oklahoma, United States

latitude: 36-17-40N, longitude: 095-28-47W, elevation: 725 ft

Current weather observation

The report was made 26 minutes ago, at 07:35 UTC
Wind 10 mph from the South
Temperature 77°F
Humidity 100%
Pressure 29.89 in. Hg
Visibility: 10 miles
Clear sky

METAR: KGCM 140735Z AUTO 18009KT 10SM CLR 25/25 A2989 RMK AO2 TSNO

Time: 03:01 (08:01 UTC)


TAF: missing

Weather observations and forecasts of more than 4000 airports (METAR and TAF reports).

The available stations are represented by yellow and red dots on the map.

Hover mouse over dot to see the name of the station.

Then click to see weather observations and forecasts.

To change the map : click on the green buttons with a black cross to zoom in, on the green button with a dash to zoom out, or on the green arrows for adjacent maps.


METAR-TAF: